Project,Study,Ord_Occ,Event_Num,Cast_ID,Date_Time_UTC,Date_Time_PST,Lat_Dec,Lon_Dec,Sta_ID,Line,Sta,Depth,Pressure,PrQ,Temp1,Temp1Q,Temp2,Temp2Q,TempAve,Salt1,Salt1Q,Salt1_Corr,Salt2,Salt2Q,Salt2_Corr,SaltAve_Corr,Ox1,Ox1Q,Ox1_CruiseCorr,Ox1_StaCorr,Ox2,Ox2Q,Ox2_CruiseCorr,Ox2_StaCorr,OxAve_StaCorr,Ox1uM,Ox1uM_CruiseCorr,Ox1uM_StaCorr,Ox2uM,Ox2uM_CruiseCorr,Ox2uM_StaCorr,OxAveuM_StaCorr,FluorV,FluorQ,EstChl_CruiseCorr,EstChl_StaCorr,ISUSV,ISUSQ,EstNO3_CruiseCorr,EstNO3_StaCorr,SigThetaTS1,SigThetaTS1Q,SigThetaTS2,SigThetaTS2Q,BAT,XMiss,TransQ,pH,pHQ,SPAR,SPARQ,PAR,PARQ,PoT1,PoT2,DynHt,SVA,OxSat1,OxSat2,BTL_Depth,BTL_Temp,SaltB,OxB,OxBuM,Chl-a,Phaeo,NO3,NO2,NH4,PO4,SIL
CalCOFI,2105SH,012,,2105_012u,06-May-2021 14:31:00,06-May-2021 06:31:00,30.84642,-121.58927,093.3 090.0,093.3,090.0,520.000,524.262,,5.3842,,5.3848,,5.3845,34.2288,,34.2300,34.2295,,34.2314,34.2307,0.3650,,0.4478,0.4270,0.3712,,0.4439,0.4189,0.4230,15.872,19.0914,19.0768,16.141,22.2703,18.6811,18.8790,0.0351,,,,0.6122,,0.0000,,27.0240,,27.0245,,,,,,,,,,,5.3410,5.3416,0.9065,109.093,5.181,5.269,,,,,,,,,,,,
CalCOFI,2105SH,012,,2105_012u,06-May-2021 14:31:02,06-May-2021 06:31:02,30.84642,-121.58928,093.3 090.0,093.3,090.0,519.000,523.253,,5.3859,,5.3865,,5.3862,34.2279,,34.2291,34.2286,,34.2305,34.2298,0.3649,,0.4477,0.4269,0.3736,,0.4464,0.4214,0.4242,15.870,19.0893,19.0747,16.248,22.2682,18.7923,18.9335,0.0352,,,,0.6122,,0.0000,,27.0230,,27.0235,,,,,,,,,,,5.3428,5.3433,0.9065,109.174,5.180,5.304,,,,,,,,,,,,
CalCOFI,2105SH,012,,2105_012u,06-May-2021 14:31:18,06-May-2021 06:31:18,30.84642,-121.58929,093.3 090.0,093.3,090.0,518.000,522.243,,5.3851,,5.3855,,5.3853,34.2276,,34.2288,34.2285,,34.2304,34.2296,0.3649,,0.4477,0.4269,0.3693,,0.4419,0.4169,0.4219,15.868,19.0872,19.0726,16.059,22.2660,18.5960,18.8343,0.0357,,,,0.6119,,0.0000,,27.0229,,27.0236,,,,,,,,,,,5.3421,5.3424,0.9075,109.175,5.180,5.242,518,5.385,34.2240,0.426,18.52,,,42.53,0.00,0.00,3.09,81.51
CalCOFI,2105SH,012,,2105_012u,06-May-2021 14:31:26,06-May-2021 06:31:26,30.84642,-121.58930,093.3 090.0,093.3,090.0,517.000,521.234,,5.3864,,5.3864,,5.3864,34.2271,,34.2283,34.2281,,34.2300,34.2292,0.3649,,0.4477,0.4269,0.3714,,0.4441,0.4191,0.4230,15.868,19.0872,19.0726,16.149,22.2660,18.6894,18.8810,0.0355,,,,0.6118,,0.0000,,27.0224,,27.0232,,,,,,,,,,,5.3435,5.3435,0.9081,109.213,5.180,5.271,,,,,,,,,,,,
CalCOFI,2105SH,012,,2105_012u,06-May-2021 14:31:27,06-May-2021 06:31:27,30.84642,-121.58931,093.3 090.0,093.3,090.0,516.000,520.224,,5.3878,,5.3885,,5.3882,34.2270,,34.2282,34.2277,,34.2296,34.2289,0.3655,,0.4483,0.4275,0.3723,,0.4450,0.4200,0.4238,15.894,19.1144,19.0998,16.191,22.2941,18.7331,18.9165,0.0353,,,,0.6119,,0.0000,,27.0221,,27.0226,,,,,,,,,,,5.3449,5.3456,0.9081,109.229,5.188,5.285,,,,,,,,,,,,
CalCOFI,2105SH,012,,2105_012u,06-May-2021 14:31:28,06-May-2021 06:31:28,30.84642,-121.58932,093.3 090.0,093.3,090.0,515.000,519.215,,5.3877,,5.3885,,5.3881,34.2270,,34.2282,34.2278,,34.2297,34.2290,0.3655,,0.4483,0.4275,0.3745,,0.4473,0.4223,0.4249,15.893,19.1133,19.0988,16.284,22.2930,18.8297,18.9643,0.0360,,,,0.6119,,0.0000,,27.0221,,27.0226,,,,,,,,,,,5.3449,5.3458,0.9081,109.212,5.188,5.316,,,,,,,,,,,,
CalCOFI,2105SH,012,,2105_012u,06-May-2021 14:31:29,06-May-2021 06:31:29,30.84642,-121.58932,093.3 090.0,093.3,090.0,514.000,518.206,,5.3884,,5.3898,,5.3891,34.2270,,34.2282,34.2278,,34.2297,34.2290,0.3651,,0.4479,0.4271,0.3785,,0.4515,0.4265,0.4268,15.875,19.0945,19.0799,16.457,22.2736,19.0093,19.0446,0.0359,,,,0.6120,,0.0000,,27.0220,,27.0225,,,,,,,,,,,5.3458,5.3471,0.9081,109.213,5.182,5.372,,,,,,,,,,,,
CalCOFI,2105SH,012,,2105_012u,06-May-2021 14:31:30,06-May-2021 06:31:30,30.84642,-121.58932,093.3 090.0,093.3,090.0,513.000,517.196,,5.3941,,5.3925,,5.3933,34.2263,,34.2275,34.2279,,34.2298,34.2287,0.3650,,0.4478,0.4270,0.3775,,0.4504,0.4255,0.4263,15.871,19.0903,19.0757,16.417,22.2692,18.9678,19.0218,0.0357,,,,0.6120,,0.0000,,27.0208,,27.0223,,,,,,,,,,,5.3515,5.3499,0.9081,109.323,5.181,5.360,,,,,,,,,,,,
CalCOFI,2105SH,012,,2105_012u,06-May-2021 14:31:31,06-May-2021 06:31:31,30.84642,-121.58932,093.3 090.0,093.3,090.0,512.000,516.187,,5.4166,,5.4338,,5.4252,34.2268,,34.2280,34.2305,,34.2324,34.2302,0.3647,,0.4475,0.4267,0.3753,,0.4481,0.4232,0.4250,15.859,19.0778,19.0632,16.319,22.2563,18.8660,18.9646,0.0360,,,,0.6121,,0.0000,,27.0185,,27.0194,,,,,,,,,,,5.3740,5.3911,0.9081,109.553,5.180,5.333,,,,,,,,,,,,
CalCOFI,2105SH,012,,2105_012u,06-May-2021 14:31:33,06-May-2021 06:31:33,30.84642,-121.58932,093.3 090.0,093.3,090.0,511.000,515.177,,5.4716,,5.4701,,5.4709,34.2259,,34.2271,34.2314,,34.2333,34.2302,0.3641,,0.4469,0.4260,0.3747,,0.4475,0.4225,0.4243,15.834,19.0517,19.0370,16.293,22.2293,18.8390,18.9380,0.0355,,,,0.6121,,0.0000,,27.0112,,27.0158,,,,,,,,,,,5.4289,5.4274,0.9081,110.294,5.179,5.329,,,,,,,,,,,,
CalCOFI,2105SH,012,,2105_012u,06-May-2021 14:31:34,06-May-2021 06:31:34,30.84642,-121.58932,093.3 090.0,093.3,090.0,510.000,514.168,,5.4505,,5.4632,,5.4569,34.2325,,34.2337,34.2319,,34.2338,34.2338,0.3643,,0.4471,0.4263,0.3654,,0.4379,0.4128,0.4196,15.840,19.0579,19.0433,15.891,22.2358,18.4215,18.7324,0.0358,,,,0.6121,,0.0000,,27.0189,,27.0169,,,,,,,,,,,5.4079,5.4206,0.9081,109.528,5.179,5.197,,,,,,,,,,,,
CalCOFI,2105SH,012,,2105_012u,06-May-2021 14:31:35,06-May-2021 06:31:35,30.84642,-121.58932,093.3 090.0,093.3,090.0,509.000,513.158,,5.4800,,5.4596,,5.4698,34.2247,,34.2259,34.2313,,34.2332,34.2296,0.3639,,0.4467,0.4258,0.3661,,0.4386,0.4136,0.4197,15.827,19.0443,19.0296,15.920,22.2217,18.4516,18.7406,0.0355,,,,0.6120,,0.0000,,27.0093,,27.0169,,,,,,,,,,,5.4374,5.4171,0.9081,110.462,5.177,5.206,,,,,,,,,,,,
CalCOFI,2105SH,012,,2105_012u,06-May-2021 14:31:36,06-May-2021 06:31:36,30.84642,-121.58932,093.3 090.0,093.3,090.0,508.000,512.149,,5.5062,,5.4998,,5.5030,34.2296,,34.2308,34.2335,,34.2354,34.2331,0.3609,,0.4435,0.4227,0.3687,,0.4413,0.4163,0.4195,15.695,18.9064,18.8914,16.036,22.0792,18.5721,18.7318,0.0358,,,,0.6119,,0.0000,,27.0100,,27.0139,,,,,,,,,,,5.4636,5.4572,0.9081,110.411,5.138,5.248,,,,,,,,,,,,
CalCOFI,2105SH,012,,2105_012u,06-May-2021 14:31:37,06-May-2021 06:31:37,30.84642,-121.58932,093.3 090.0,093.3,090.0,507.000,511.140,,5.5442,,5.5314,,5.5378,34.2288,,34.2300,34.2366,,34.2385,34.2343,0.3526,,0.4348,0.4139,0.3603,,0.4326,0.4075,0.4107,15.334,18.5290,18.5132,15.668,21.6893,18.1899,18.3516,0.0353,,,,0.6118,,0.0000,,27.0048,,27.0125,,,,,,,,,,,5.5015,5.4887,0.9081,110.936,5.024,5.132,,,,,,,,,,,,
CalCOFI,2105SH,012,,2105_012u,06-May-2021 14:31:38,06-May-2021 06:31:38,30.84644,-121.58932,093.3 090.0,093.3,090.0,506.000,510.130,,5.5785,,5.5483,,5.5634,34.2343,,34.2355,34.2432,,34.2451,34.2403,0.3536,,0.4359,0.4150,0.3594,,0.4317,0.4066,0.4108,15.378,18.5750,18.5593,15.629,21.7368,18.1494,18.3544,0.0345,,,,0.6116,,0.0000,,27.0050,,27.0157,,,,,,,,,,,5.5357,5.5057,0.9081,110.943,5.043,5.122,,,,,,,,,,,,
CalCOFI,2105SH,012,,2105_012u,06-May-2021 14:31:39,06-May-2021 06:31:39,30.84644,-121.58932,093.3 090.0,093.3,090.0,505.000,509.121,,5.6140,,5.6212,,5.6176,34.2366,,34.2378,34.2454,,34.2473,34.2426,0.3483,,0.4304,0.4094,0.3574,,0.4296,0.4045,0.4070,15.147,18.3335,18.3173,15.543,21.4873,18.0601,18.1887,0.0359,,,,0.6114,,0.0000,,27.0025,,27.0087,,,,,,,,,,,5.5713,5.5784,0.9081,111.215,4.971,5.102,,,,,,,,,,,,
CalCOFI,2105SH,012,,2105_012u,06-May-2021 14:31:41,06-May-2021 06:31:41,30.84644,-121.58932,093.3 090.0,093.3,090.0,504.000,508.111,,5.6879,,5.6277,,5.6578,34.2450,,34.2462,34.2430,,34.2449,34.2456,0.3438,,0.4256,0.4047,0.3524,,0.4244,0.3993,0.4020,14.953,18.1307,18.1141,15.322,21.2778,17.8306,17.9724,0.0358,,,,0.6109,,0.0000,,27.0002,,27.0059,,,,,,,,,,,5.6449,5.5850,0.9081,111.511,4.916,5.030,,,,,,,,,,,,
CalCOFI,2105SH,012,,2105_012u,06-May-2021 14:31:42,06-May-2021 06:31:42,30.84644,-121.58932,093.3 090.0,093.3,090.0,503.000,507.102,,5.6986,,5.6708,,5.6847,34.2484,,34.2496,34.2467,,34.2486,34.2491,0.3466,,0.4286,0.4076,0.3498,,0.4217,0.3965,0.4021,15.072,18.2551,18.2388,15.211,21.4063,17.7153,17.9771,0.0351,,,,0.6105,,0.0000,,27.0015,,27.0036,,,,,,,,,,,5.6556,5.6279,0.9081,111.384,4.957,4.999,,,,,,,,,,,,
CalCOFI,2105SH,012,,2105_012u,06-May-2021 14:31:43,06-May-2021 06:31:43,30.84644,-121.58932,093.3 090.0,093.3,090.0,502.000,506.093,,5.6776,,5.6657,,5.6717,34.2463,,34.2475,34.2492,,34.2511,34.2493,0.3476,,0.4296,0.4087,0.3549,,0.4270,0.4019,0.4053,15.118,18.3032,18.2870,15.432,21.4560,17.9448,18.1159,0.0351,,,,0.6102,,0.0000,,27.0024,,27.0062,,,,,,,,,,,5.6348,5.6229,0.9081,111.262,4.969,5.071,,,,,,,,,,,,
CalCOFI,2105SH,012,,2105_012u,06-May-2021 14:31:44,06-May-2021 06:31:44,30.84644,-121.58932,093.3 090.0,093.3,090.0,501.000,505.083,,5.6762,,5.6711,,5.6737,34.2455,,34.2467,34.2479,,34.2498,34.2483,0.3476,,0.4296,0.4087,0.3549,,0.4270,0.4019,0.4053,15.117,18.3021,18.2859,15.434,21.4549,17.9469,18.1164,0.0352,,,,0.6100,,0.0000,,27.0020,,27.0045,,,,,,,,,,,5.6335,5.6284,0.9081,111.290,4.969,5.072,,,,,,,,,,,,
CalCOFI,2105SH,012,,2105_012u,06-May-2021 14:31:45,06-May-2021 06:31:45,30.84644,-121.58932,093.3 090.0,093.3,090.0,500.000,504.074,,5.6735,,5.6666,,5.6701,34.2441,,34.2453,34.2467,,34.2486,34.2470,0.3476,,0.4296,0.4087,0.3549,,0.4270,0.4019,0.4053,15.116,18.3011,18.2849,15.434,21.4538,17.9469,18.1159,0.0346,,,,0.6098,,0.0000,,27.0012,,27.0041,,,,,,,,,,,5.6309,5.6240,0.9081,111.345,4.968,5.072,,,,,,,,,,,,
CalCOFI,2105SH,012,,2105_012u,06-May-2021 14:31:46,06-May-2021 06:31:46,30.84644,-121.58932,093.3 090.0,093.3,090.0,499.000,503.065,,5.6887,,5.6755,,5.6821,34.2419,,34.2431,34.2458,,34.2477,34.2454,0.3497,,0.4318,0.4109,0.3575,,0.4297,0.4046,0.4078,15.208,18.3972,18.3812,15.547,21.5532,18.0642,18.2227,0.0353,,,,0.6096,,0.0000,,26.9976,,27.0023,,,,,,,,,,,5.6461,5.6330,0.9081,111.691,5.000,5.110,,,,,,,,,,,,
CalCOFI,2105SH,012,,2105_012u,06-May-2021 14:31:47,06-May-2021 06:31:47,30.84644,-121.58932,093.3 090.0,093.3,090.0,498.000,502.055,,5.6994,,5.6908,,5.6951,34.2424,,34.2436,34.2449,,34.2468,34.2452,0.3568,,0.4392,0.4184,0.3655,,0.4380,0.4129,0.4157,15.516,18.7192,18.7039,15.894,21.8858,18.4246,18.5643,0.0359,,,,0.6095,,0.0000,,26.9967,,26.9997,,,,,,,,,,,5.6569,5.6483,0.9081,111.774,5.103,5.226,,,,,,,,,,,,
CalCOFI,2105SH,012,,2105_012u,06-May-2021 14:31:48,06-May-2021 06:31:48,30.84644,-121.58932,093.3 090.0,093.3,090.0,497.000,501.046,,5.7090,,5.7101,,5.7096,34.2421,,34.2433,34.2444,,34.2463,34.2448,0.3540,,0.4363,0.4154,0.3614,,0.4337,0.4086,0.4120,15.395,18.5927,18.5771,15.717,21.7552,18.2408,18.4090,0.0346,,,,0.6093,,0.0000,,26.9953,,26.9970,,,,,,,,,,,5.6665,5.6677,0.9081,111.908,5.064,5.170,,,,,,,,,,,,
CalCOFI,2105SH,012,,2105_012u,06-May-2021 14:31:49,06-May-2021 06:31:49,30.84644,-121.58932,093.3 090.0,093.3,090.0,496.000,500.036,,5.7161,,5.7167,,5.7164,34.2415,,34.2427,34.2437,,34.2456,34.2442,0.3532,,0.4355,0.4146,0.3611,,0.4334,0.4083,0.4115,15.360,18.5561,18.5405,15.702,21.7174,18.2252,18.3829,0.0353,,,,0.6093,,0.0000,,26.9939,,26.9956,,,,,,,,,,,5.6737,5.6743,0.9081,112.028,5.053,5.166,,,,,,,,,,,,
CalCOFI,2105SH,012,,2105_012u,06-May-2021 14:31:50,06-May-2021 06:31:50,30.84644,-121.58932,093.3 090.0,093.3,090.0,495.000,499.027,,5.7186,,5.7205,,5.7196,34.2405,,34.2417,34.2427,,34.2446,34.2432,0.3625,,0.4452,0.4244,0.3700,,0.4426,0.4176,0.4210,15.764,18.9785,18.9637,16.088,22.1537,18.6261,18.7949,0.0357,,,,0.6093,,0.0000,,26.9928,,26.9943,,,,,,,,,,,5.6763,5.6782,0.9081,112.122,5.186,5.293,,,,,,,,,,,,
CalCOFI,2105SH,012,,2105_012u,06-May-2021 14:31:51,06-May-2021 06:31:51,30.84644,-121.58932,093.3 090.0,093.3,090.0,494.000,498.018,,5.7151,,5.7158,,5.7155,34.2412,,34.2424,34.2426,,34.2445,34.2435,0.3574,,0.4399,0.4190,0.3631,,0.4355,0.4104,0.4147,15.544,18.7485,18.7332,15.792,21.9161,18.3187,18.5260,0.0360,,,,0.6093,,0.0000,,26.9938,,26.9948,,,,,,,,,,,5.6729,5.6736,0.9081,112.015,5.114,5.195,,,,,,,,,,,,
CalCOFI,2105SH,012,,2105_012u,06-May-2021 14:31:52,06-May-2021 06:31:52,30.84644,-121.58932,093.3 090.0,093.3,090.0,493.000,497.008,,5.7151,,5.7136,,5.7144,34.2409,,34.2421,34.2431,,34.2450,34.2436,0.3564,,0.4388,0.4179,0.3627,,0.4351,0.4100,0.4140,15.497,18.6994,18.6840,15.773,21.8653,18.2989,18.4915,0.0358,,,,0.6094,,0.0000,,26.9935,,26.9955,,,,,,,,,,,5.6730,5.6714,0.9081,112.027,5.098,5.189,,,,,,,,,,,,
CalCOFI,2105SH,012,,2105_012u,06-May-2021 14:31:53,06-May-2021 06:31:53,30.84644,-121.58932,093.3 090.0,093.3,090.0,492.000,495.999,,5.7224,,5.7207,,5.7216,34.2399,,34.2411,34.2422,,34.2441,34.2426,0.3563,,0.4387,0.4178,0.3626,,0.4350,0.4099,0.4139,15.493,18.6952,18.6798,15.768,21.8610,18.2938,18.4868,0.0356,,,,0.6095,,0.0000,,26.9918,,26.9938,,,,,,,,,,,5.6803,5.6787,0.9081,112.179,5.098,5.188,,,,,,,,,,,,
CalCOFI,2105SH,012,,2105_012u,06-May-2021 14:31:53,06-May-2021 06:31:53,30.84644,-121.58932,093.3 090.0,093.3,090.0,491.000,494.990,,5.7213,,5.7282,,5.7248,34.2412,,34.2424,34.2427,,34.2446,34.2435,0.3562,,0.4386,0.4177,0.3625,,0.4349,0.4098,0.4138,15.491,18.6931,18.6777,15.763,21.8588,18.2886,18.4832,0.0347,,,,0.6095,,0.0000,,26.9930,,26.9933,,,,,,,,,,,5.6793,5.6862,0.9081,112.058,5.097,5.187,,,,,,,,,,,,
CalCOFI,2105SH,012,,2105_012u,06-May-2021 14:31:54,06-May-2021 06:31:54,30.84644,-121.58932,093.3 090.0,093.3,090.0,490.000,493.980,,5.7259,,5.7390,,5.7325,34.2410,,34.2422,34.2442,,34.2461,34.2442,0.3561,,0.4385,0.4176,0.3623,,0.4347,0.4096,0.4136,15.487,18.6889,18.6735,15.756,21.8545,18.2813,18.4774,0.0364,,,,0.6097,,0.0000,,26.9922,,26.9931,,,,,,,,,,,5.6840,5.6971,0.9081,112.120,5.096,5.186,,,,,,,,,,,,
CalCOFI,2105SH,012,,2105_012u,06-May-2021 14:31:55,06-May-2021 06:31:55,30.84644,-121.58932,093.3 090.0,093.3,090.0,489.000,492.971,,5.7536,,5.7544,,5.7540,34.2408,,34.2420,34.2437,,34.2456,34.2438,0.3563,,0.4387,0.4178,0.3621,,0.4345,0.4094,0.4136,15.494,18.6962,18.6808,15.747,21.8621,18.2719,18.4764,0.0360,,,,0.6099,,0.0000,,26.9887,,26.9908,,,,,,,,,,,5.7117,5.7125,0.9081,112.471,5.102,5.185,,,,,,,,,,,,
CalCOFI,2105SH,012,,2105_012u,06-May-2021 14:31:56,06-May-2021 06:31:56,30.84644,-121.58932,093.3 090.0,093.3,090.0,488.000,491.962,,5.7590,,5.7586,,5.7588,34.2412,,34.2424,34.2431,,34.2450,34.2437,0.3637,,0.4465,0.4256,0.3628,,0.4352,0.4101,0.4179,15.815,19.0318,19.0171,15.779,22.2088,18.3052,18.6612,0.0346,,,,0.6102,,0.0000,,26.9883,,26.9899,,,,,,,,,,,5.7171,5.7167,0.9081,112.496,5.208,5.196,,,,,,,,,,,,
CalCOFI,2105SH,012,,2105_012u,06-May-2021 14:31:58,06-May-2021 06:31:58,30.84644,-121.58932,093.3 090.0,093.3,090.0,487.000,490.953,,5.7542,,5.7547,,5.7545,34.2413,,34.2425,34.2431,,34.2450,34.2438,0.3612,,0.4438,0.4230,0.3694,,0.4420,0.4170,0.4200,15.706,18.9179,18.9029,16.063,22.0910,18.6001,18.7515,0.0354,,,,0.6107,,0.0000,,26.9890,,26.9903,,,,,,,,,,,5.7124,5.7129,0.9081,112.421,5.172,5.289,,,,,,,,,,,,
CalCOFI,2105SH,012,,2105_012u,06-May-2021 14:31:59,06-May-2021 06:31:59,30.84644,-121.58932,093.3 090.0,093.3,090.0,486.000,489.943,,5.7523,,5.7567,,5.7545,34.2409,,34.2421,34.2426,,34.2445,34.2433,0.3602,,0.4428,0.4219,0.3718,,0.4445,0.4195,0.4207,15.664,18.8739,18.8589,16.170,22.0457,18.7113,18.7851,0.0354,,,,0.6110,,0.0000,,26.9889,,26.9897,,,,,,,,,,,5.7107,5.7150,0.9081,112.409,5.157,5.325,,,,,,,,,,,,
CalCOFI,2105SH,012,,2105_012u,06-May-2021 14:32:00,06-May-2021 06:32:00,30.84644,-121.58933,093.3 090.0,093.3,090.0,485.000,488.934,,5.7492,,5.7530,,5.7511,34.2408,,34.2420,34.2427,,34.2446,34.2433,0.3622,,0.4449,0.4240,0.3751,,0.4479,0.4229,0.4235,15.749,18.9628,18.9479,16.311,22.1375,18.8577,18.9028,0.0357,,,,0.6113,,0.0000,,26.9892,,26.9902,,,,,,,,,,,5.7077,5.7114,0.9081,112.366,5.185,5.371,,,,,,,,,,,,
CalCOFI,2105SH,012,,2105_012u,06-May-2021 14:32:00,06-May-2021 06:32:00,30.84644,-121.58934,093.3 090.0,093.3,090.0,484.000,487.925,,5.7466,,5.7486,,5.7476,34.2396,,34.2408,34.2409,,34.2428,34.2418,0.3689,,0.4519,0.4311,0.3843,,0.4575,0.4326,0.4319,16.044,19.2712,19.2570,16.712,22.4561,19.2742,19.2656,0.0360,,,,0.6116,,0.0000,,26.9886,,26.9893,,,,,,,,,,,5.7051,5.7071,0.9081,112.406,5.282,5.502,,,,,,,,,,,,
CalCOFI,2105SH,012,,2105_012u,06-May-2021 14:32:01,06-May-2021 06:32:01,30.84644,-121.58934,093.3 090.0,093.3,090.0,483.000,486.915,,5.7458,,5.7450,,5.7454,34.2375,,34.2387,34.2374,,34.2393,34.2390,0.3761,,0.4594,0.4387,0.3870,,0.4603,0.4354,0.4371,16.356,19.5974,19.5838,16.831,22.7930,19.3977,19.4908,0.0361,,,,0.6119,,0.0000,,26.9869,,26.9869,,,,,,,,,,,5.7045,5.7036,0.9081,112.546,5.385,5.541,,,,,,,,,,,,
CalCOFI,2105SH,012,,2105_012u,06-May-2021 14:32:02,06-May-2021 06:32:02,30.84646,-121.58932,093.3 090.0,093.3,090.0,482.000,485.906,,5.7469,,5.7475,,5.7472,34.2333,,34.2345,34.2344,,34.2363,34.2354,0.3770,,0.4604,0.4396,0.3889,,0.4622,0.4374,0.4385,16.396,19.6392,19.6257,16.912,22.8362,19.4819,19.5538,0.0354,,,,0.6122,,0.0000,,26.9835,,26.9843,,,,,,,,,,,5.7057,5.7062,0.9081,112.859,5.398,5.568,,,,,,,,,,,,
CalCOFI,2105SH,012,,2105_012u,06-May-2021 14:32:03,06-May-2021 06:32:03,30.84646,-121.58933,093.3 090.0,093.3,090.0,481.000,484.897,,5.7478,,5.7499,,5.7489,34.2327,,34.2339,34.2330,,34.2349,34.2344,0.3794,,0.4629,0.4422,0.3888,,0.4621,0.4373,0.4398,16.498,19.7458,19.7325,16.907,22.9464,19.4767,19.6046,0.0349,,,,0.6126,,0.0000,,26.9829,,26.9829,,,,,,,,,,,5.7066,5.7087,0.9081,112.902,5.431,5.566,,,,,,,,,,,,
CalCOFI,2105SH,012,,2105_012u,06-May-2021 14:32:03,06-May-2021 06:32:03,30.84646,-121.58934,093.3 090.0,093.3,090.0,480.000,483.887,,5.7515,,5.7502,,5.7509,34.2313,,34.2325,34.2327,,34.2346,34.2336,0.3819,,0.4655,0.4448,0.3915,,0.4649,0.4401,0.4425,16.609,19.8618,19.8488,17.024,23.0663,19.5982,19.7235,0.0366,,,,0.6131,,0.0000,,26.9813,,26.9826,,,,,,,,,,,5.7104,5.7091,0.9081,113.039,5.468,5.605,,,,,,,,,,,,
CalCOFI,2105SH,012,,2105_012u,06-May-2021 14:32:05,06-May-2021 06:32:05,30.84646,-121.58934,093.3 090.0,093.3,090.0,479.000,482.878,,5.7531,,5.7547,,5.7539,34.2309,,34.2321,34.2319,,34.2338,34.2330,0.3834,,0.4671,0.4464,0.3858,,0.4590,0.4341,0.4403,16.673,19.9288,19.9159,16.777,23.1354,19.3417,19.6288,0.0358,,,,0.6137,,0.0000,,26.9808,,26.9814,,,,,,,,,,,5.7121,5.7137,0.9081,113.075,5.489,5.524,,,,,,,,,,,,
CalCOFI,2105SH,012,,2105_012u,06-May-2021 14:32:06,06-May-2021 06:32:06,30.84646,-121.58934,093.3 090.0,093.3,090.0,478.000,481.869,,5.7554,,5.7546,,5.7550,34.2306,,34.2318,34.2319,,34.2338,34.2328,0.3816,,0.4652,0.4445,0.3940,,0.4675,0.4427,0.4436,16.594,19.8462,19.8331,17.134,23.0501,19.7124,19.7728,0.0356,,,,0.6145,,0.0000,,26.9802,,26.9814,,,,,,,,,,,5.7145,5.7136,0.9081,113.121,5.464,5.642,,,,,,,,,,,,
CalCOFI,2105SH,012,,2105_012u,06-May-2021 14:32:07,06-May-2021 06:32:07,30.84646,-121.58934,093.3 090.0,093.3,090.0,477.000,480.860,,5.7576,,5.7549,,5.7563,34.2303,,34.2315,34.2318,,34.2337,34.2326,0.3869,,0.4707,0.4501,0.3889,,0.4622,0.4374,0.4438,16.823,20.0856,20.0730,16.914,23.2974,19.4839,19.7785,0.0349,,,,0.6154,,0.0000,,26.9798,,26.9813,,,,,,,,,,,5.7167,5.7140,0.9081,113.155,5.539,5.569,,,,,,,,,,,,
CalCOFI,2105SH,012,,2105_012u,06-May-2021 14:32:08,06-May-2021 06:32:08,30.84646,-121.58934,093.3 090.0,093.3,090.0,476.000,479.850,,5.7557,,5.7560,,5.7559,34.2305,,34.2317,34.2311,,34.2330,34.2324,0.3877,,0.4716,0.4509,0.3968,,0.4704,0.4456,0.4483,16.860,20.1242,20.1117,17.257,23.3374,19.8402,19.9760,0.0355,,,,0.6161,,0.0000,,26.9801,,26.9805,,,,,,,,,,,5.7150,5.7152,0.9081,113.105,5.552,5.682,,,,,,,,,,,,
CalCOFI,2105SH,012,,2105_012u,06-May-2021 14:32:09,06-May-2021 06:32:09,30.84646,-121.58934,093.3 090.0,093.3,090.0,475.000,478.841,,5.7538,,5.7548,,5.7543,34.2300,,34.2312,34.2311,,34.2330,34.2321,0.3969,,0.4812,0.4606,0.4044,,0.4783,0.4535,0.4571,17.262,20.5445,20.5328,17.586,23.7715,20.1819,20.3574,0.0354,,,,0.6168,,0.0000,,26.9800,,26.9807,,,,,,,,,,,5.7131,5.7142,0.9081,113.102,5.683,5.790,,,,,,,,,,,,
CalCOFI,2105SH,012,,2105_012u,06-May-2021 14:32:10,06-May-2021 06:32:10,30.84644,-121.58934,093.3 090.0,093.3,090.0,474.000,477.832,,5.7519,,5.7527,,5.7523,34.2277,,34.2289,34.2288,,34.2307,34.2298,0.4027,,0.4872,0.4667,0.4090,,0.4830,0.4583,0.4625,17.513,20.8069,20.7958,17.786,24.0426,20.3896,20.5927,0.0348,,,,0.6174,,0.0000,,26.9784,,26.9791,,,,,,,,,,,5.7114,5.7121,0.9081,113.237,5.766,5.856,,,,,,,,,,,,
CalCOFI,2105SH,012,,2105_012u,06-May-2021 14:32:11,06-May-2021 06:32:11,30.84644,-121.58935,093.3 090.0,093.3,090.0,473.000,476.823,,5.7393,,5.7498,,5.7446,34.2246,,34.2258,34.2271,,34.2290,34.2274,0.4081,,0.4929,0.4724,0.4174,,0.4917,0.4671,0.4698,17.746,21.0505,21.0398,18.153,24.2942,20.7707,20.9053,0.0354,,,,0.6180,,0.0000,,26.9774,,26.9781,,,,,,,,,,,5.6988,5.7093,0.9081,113.297,5.841,5.976,,,,,,,,,,,,
CalCOFI,2105SH,012,,2105_012u,06-May-2021 14:32:12,06-May-2021 06:32:12,30.84644,-121.58936,093.3 090.0,093.3,090.0,472.000,475.813,,5.7248,,5.7368,,5.7308,34.2185,,34.2197,34.2214,,34.2233,34.2215,0.4160,,0.5012,0.4807,0.4243,,0.4989,0.4743,0.4775,18.089,21.4090,21.3991,18.452,24.6647,21.0813,21.2402,0.0353,,,,0.6189,,0.0000,,26.9744,,26.9752,,,,,,,,,,,5.6845,5.6965,0.9081,113.554,5.951,6.073,,,,,,,,,,,,
CalCOFI,2105SH,012,,2105_012u,06-May-2021 14:32:13,06-May-2021 06:32:13,30.84644,-121.58936,093.3 090.0,093.3,090.0,471.000,474.804,,5.7203,,5.7215,,5.7209,34.2164,,34.2176,34.2167,,34.2186,34.2181,0.4154,,0.5005,0.4801,0.4243,,0.4989,0.4743,0.4772,18.066,21.3850,21.3751,18.454,24.6398,21.0833,21.2292,0.0354,,,,0.6198,,0.0000,,26.9732,,26.9733,,,,,,,,,,,5.6801,5.6814,0.9081,113.645,5.943,6.071,,,,,,,,,,,,
CalCOFI,2105SH,012,,2105_012u,06-May-2021 14:32:14,06-May-2021 06:32:14,30.84644,-121.58936,093.3 090.0,093.3,090.0,470.000,473.795,,5.7208,,5.7163,,5.7186,34.2164,,34.2176,34.2152,,34.2171,34.2174,0.4169,,0.5021,0.4817,0.4174,,0.4917,0.4671,0.4744,18.129,21.4509,21.4410,18.152,24.7079,20.7697,21.1054,0.0358,,,,0.6208,,0.0000,,26.9732,,26.9728,,,,,,,,,,,5.6808,5.6762,0.9081,113.634,5.964,5.971,,,,,,,,,,,,
CalCOFI,2105SH,012,,2105_012u,06-May-2021 14:32:15,06-May-2021 06:32:15,30.84644,-121.58936,093.3 090.0,093.3,090.0,469.000,472.786,,5.7185,,5.7192,,5.7189,34.2158,,34.2170,34.2159,,34.2178,34.2174,0.4174,,0.5026,0.4822,0.4244,,0.4990,0.4744,0.4783,18.150,21.4728,21.4630,18.456,24.7306,21.0854,21.2742,0.0362,,,,0.6216,,0.0000,,26.9730,,26.9730,,,,,,,,,,,5.6785,5.6792,0.9081,113.636,5.970,6.071,,,,,,,,,,,,
CalCOFI,2105SH,012,,2105_012u,06-May-2021 14:32:15,06-May-2021 06:32:15,30.84644,-121.58936,093.3 090.0,093.3,090.0,468.000,471.776,,5.7206,,5.7210,,5.7208,34.2159,,34.2171,34.2168,,34.2187,34.2179,0.4218,,0.5072,0.4868,0.4250,,0.4996,0.4750,0.4809,18.344,21.6756,21.6663,18.481,24.9401,21.1114,21.3889,0.0355,,,,0.6224,,0.0000,,26.9727,,26.9735,,,,,,,,,,,5.6807,5.6811,0.9081,113.650,6.034,6.080,,,,,,,,,,,,
CalCOFI,2105SH,012,,2105_012u,06-May-2021 14:32:16,06-May-2021 06:32:16,30.84644,-121.58936,093.3 090.0,093.3,090.0,467.000,470.767,,5.7199,,5.7213,,5.7206,34.2162,,34.2174,34.2170,,34.2189,34.2182,0.4195,,0.5048,0.4844,0.4248,,0.4994,0.4748,0.4796,18.243,21.5700,21.5605,18.472,24.8310,21.1020,21.3313,0.0345,,,,0.6231,,0.0000,,26.9731,,26.9735,,,,,,,,,,,5.6801,5.6815,0.9081,113.607,6.001,6.077,,,,,,,,,,,,
CalCOFI,2105SH,012,,2105_012u,06-May-2021 14:32:17,06-May-2021 06:32:17,30.84644,-121.58936,093.3 090.0,093.3,090.0,466.000,469.758,,5.7133,,5.7193,,5.7163,34.2129,,34.2141,34.2164,,34.2183,34.2162,0.4253,,0.5109,0.4905,0.4330,,0.5079,0.4834,0.4870,18.493,21.8314,21.8223,18.830,25.1010,21.4738,21.6481,0.0357,,,,0.6238,,0.0000,,26.9713,,26.9733,,,,,,,,,,,5.6736,5.6796,0.9081,113.756,6.082,6.194,,,,,,,,,,,,
CalCOFI,2105SH,012,,2105_012u,06-May-2021 14:32:18,06-May-2021 06:32:18,30.84644,-121.58936,093.3 090.0,093.3,090.0,465.000,468.749,,5.7131,,5.7172,,5.7152,34.2124,,34.2136,34.2150,,34.2169,34.2153,0.4279,,0.5136,0.4932,0.4402,,0.5154,0.4909,0.4921,18.608,21.9516,21.9428,19.142,25.2252,21.7979,21.8704,0.0347,,,,0.6247,,0.0000,,26.9709,,26.9724,,,,,,,,,,,5.6735,5.6776,0.9081,113.774,6.120,6.296,,,,,,,,,,,,